Regional Weather Roundup
Issued by NWS

Home | Current Version | Previous Version | Text Only | Print | Product List | Glossary Off
Versions: 1 2 3 4 5 6 7 8 9 10 11 12 13 14 15 16 17 18 19 20 21 22 23 24 25 26 27 28 29 30 31 32 33 34 35 36 37 38 39 40 41 42 43 44 45 46 47 48 49 50

000
ASUS43 KIND 282359
RWRIN

WEATHER ROUNDUP FOR INDIANA
NATIONAL WEATHER SERVICE INDIANAPOLIS IN
700 PM EST SUN DEC 28 2014

NOTE: "FAIR" INDICATES FEW OR NO CLOUDS BELOW 12,000 FEET WITH NO
SIGNIFICANT WEATHER AND/OR OBSTRUCTIONS TO VISIBILITY.

* - STATION DOES NOT REPORT WEATHER SUCH AS PRECIPITATION OR FOG.

+ - STATION NOT QUALITY CONTROLLED BY THE NATIONAL WEATHER SERVICE.
    USE DATA WITH CAUTION...ESPECIALLY DEWPOINT AND RELATIVE
    HUMIDITY OBSERVATIONS.

INZ001>003-010>013-019-020-290100-
NORTHWEST INDIANA

CITY           SKY/WX    TMP DP  RH WIND       PRES   REMARKS
GARY /AIRPORT/ CLEAR     30  16  55 VRB7      30.20R WCI  23
KNOX *+        CLEAR     28  21  76 W5        30.19R WCI  22
VALPARAISO     NOT AVBL

$$

LMZ046-743>745-290100-
SOUTHERN LAKE MICHIGAN

STATION/POSITION TIME  TEMP WIND        PRES
                       AIR  DIR/SP/G
                 (UTC) (F)  (DEG/KT/KT) (MB)
MICHIGAN CITY    2300   33  230/  7/  8   N/A

$$

INZ004-005-014>016-021>024-290100-
NORTH CENTRAL INDIANA

CITY           SKY/WX    TMP DP  RH WIND       PRES   REMARKS
GOSHEN         CLEAR     29  24  82 SW7       30.17S WCI  22
6HR MIN TEMP:  29; 6HR MAX TEMP:  35;

SOUTH BEND     CLEAR     26  16  65 NW6       30.19R WCI  19
6HR MIN TEMP:  26; 6HR MAX TEMP:  36;


$$

INZ006>009-017-018-025>027-290100-
NORTHEAST INDIANA

CITY           SKY/WX    TMP DP  RH WIND       PRES   REMARKS
ANGOLA *+      CLEAR     28  25  86 W3        30.15S
FORT WAYNE     PTCLDY    30  25  81 W6        30.18S WCI  24
6HR MIN TEMP:  30; 6HR MAX TEMP:  35;


$$

INZ028-029-035-036-043>045-051>053-290100-
WEST CENTRAL INDIANA

CITY           SKY/WX    TMP DP  RH WIND       PRES   REMARKS
GREENCASTLE +  PTCLDY    28  21  74 CALM      30.20F
LAFAYETTE      CLEAR     24  23  96 CALM      30.21S
6HR MIN TEMP:  24; 6HR MAX TEMP:  29;

TERRE HAUTE    PTCLDY    29  23  78 CALM      30.22S
6HR MIN TEMP:  28; 6HR MAX TEMP:  31;


$$

INZ030>032-037>040-046>048-054>057-064-065-290100-
CENTRAL INDIANA

CITY           SKY/WX    TMP DP  RH WIND       PRES   REMARKS
COLUMBUS       CLOUDY    32  27  80 NW5       30.21S WCI  27
INDIANAPOLIS   MOCLDY    27  22  81 N5        30.19S WCI  22
6HR MIN TEMP:  27; 6HR MAX TEMP:  30;

-EAGLE CREEK   PTCLDY    27  22  81 CALM      30.19F
6HR MIN TEMP:  27; 6HR MAX TEMP:  30;

KOKOMO *+      CLEAR     27  23  86 CALM      30.20R
MT COMFORT *+  CLOUDY    30  21  69 N6        30.20R WCI  24
SHELBYVILLE    CLOUDY    33  27  78 NW7       30.19S WCI  27
6HR MIN TEMP:  33; 6HR MAX TEMP:  35;


$$

INZ033-034-041-042-049-050-058-059-290100-
EAST CENTRAL INDIANA

CITY           SKY/WX    TMP DP  RH WIND       PRES   REMARKS
MUNCIE         CLOUDY    31  25  78 NW7       30.18S WCI  24
6HR MIN TEMP:  31; 6HR MAX TEMP:  33;


$$

INZ060-061-067>069-081>083-085>088-290100-
SOUTHWEST INDIANA

CITY           SKY/WX    TMP DP  RH WIND       PRES   REMARKS
EVANSVILLE     CLOUDY    35  28  75 N6        30.24R WCI  30
6HR MIN TEMP:  35; 6HR MAX TEMP:  36;

HUNTINGBURG *+ CLOUDY    34  27  75 N6        30.22R WCI  29
6HR MIN TEMP:  34; 6HR MAX TEMP:  34;


$$

INZ062-063-066-070>080-084-089>092-290100-
SOUTH CENTRAL AND SOUTHEAST INDIANA

CITY           SKY/WX    TMP DP  RH WIND       PRES   REMARKS
BLOOMINGTON    CLOUDY    31  26  82 CALM      30.19R
6HR MIN TEMP:  31; 6HR MAX TEMP:  33;


$$



USA.gov is the U.S. government's official web portal to all federal, state and local government web resources and services.